ENT8KF LICA-EPWA

Flight info

Callsign ENT8KF
Flight time 2h 10m
Altitude 34000
Route ARBUM DCT EVINO DCT KUTID DCT XOLTA/N0441F350 DCT VEBAL DCT XOMBA DCT KREMI DCT BABKO DCT ORTEB DCT KONZI DCT LOGDA
Aircraft B38M/M-SDFGHIRWXY/EB1

Departure

Time 2026-05-09 11:08
Airport Lamezia Terme Sant'Eufemia International Airport (LICA)

Arrival

Time 2026-05-09 13:18
Airport Warsaw Chopin Airport (EPWA)
Time Latitude Longitude Altitude Speed Heading
2026-05-09 10:46 38.90873 16.24448 66 ft 0 kts 52°
2026-05-09 11:02 38.90875 16.24453 66 ft 1 kts 69°
2026-05-09 11:02 38.90863 16.24464 66 ft 4 kts 187°
2026-05-09 11:02 38.90839 16.24453 66 ft 2 kts 200°
2026-05-09 11:02 38.90818 16.24455 66 ft 4 kts 150°
2026-05-09 11:03 38.90804 16.24508 66 ft 7 kts 96°
2026-05-09 11:03 38.90797 16.24547 66 ft 3 kts 118°
2026-05-09 11:03 38.90766 16.24579 66 ft 9 kts 147°
2026-05-09 11:03 38.90711 16.24670 66 ft 16 kts 97°
2026-05-09 11:04 38.90691 16.24855 66 ft 24 kts 99°
2026-05-09 11:04 38.90665 16.25063 67 ft 21 kts 97°
2026-05-09 11:04 38.90644 16.25241 67 ft 19 kts 98°
2026-05-09 11:04 38.90622 16.25399 67 ft 16 kts 99°
2026-05-09 11:05 38.90606 16.25539 67 ft 15 kts 97°
2026-05-09 11:05 38.90593 16.25669 67 ft 14 kts 98°
2026-05-09 11:05 38.90579 16.25800 67 ft 14 kts 98°
2026-05-09 11:05 38.90564 16.25931 67 ft 14 kts 98°
2026-05-09 11:06 38.90550 16.26060 67 ft 14 kts 97°
2026-05-09 11:06 38.90519 16.26180 67 ft 14 kts 131°
2026-05-09 11:06 38.90433 16.26231 67 ft 13 kts 171°
2026-05-09 11:06 38.90347 16.26205 67 ft 12 kts 221°
2026-05-09 11:07 38.90321 16.26090 67 ft 19 kts 274°
2026-05-09 11:07 38.90374 16.25634 67 ft 86 kts 279°
2026-05-09 11:07 38.90492 16.24614 66 ft 144 kts 278°
2026-05-09 11:07 38.90647 16.23202 418 ft 162 kts 276°
2026-05-09 11:08 38.90795 16.21799 1175 ft 164 kts 277°
2026-05-09 11:08 38.90966 16.20283 1704 ft 179 kts 281°
2026-05-09 11:08 38.91186 16.18650 2015 ft 196 kts 280°
2026-05-09 11:08 38.91415 16.16818 2282 ft 216 kts 279°
2026-05-09 11:09 38.91650 16.14782 2501 ft 240 kts 279°
2026-05-09 11:09 38.91957 16.12631 3023 ft 251 kts 287°
2026-05-09 11:09 38.92745 16.10596 3566 ft 260 kts 310°
2026-05-09 11:09 38.93950 16.08888 4273 ft 262 kts 315°
2026-05-09 11:10 38.95236 16.07193 4968 ft 267 kts 314°
2026-05-09 11:10 38.96471 16.05442 5728 ft 267 kts 312°
2026-05-09 11:10 38.97677 16.03630 6520 ft 266 kts 311°
2026-05-09 11:10 38.98873 16.01800 7260 ft 268 kts 310°
2026-05-09 11:11 39.00047 16.00003 8040 ft 265 kts 310°
2026-05-09 11:11 39.01264 15.98149 8681 ft 270 kts 310°
2026-05-09 11:11 39.02475 15.96309 9392 ft 270 kts 309°
2026-05-09 11:11 39.03796 15.94553 10007 ft 275 kts 319°
2026-05-09 11:12 39.05364 15.93068 10427 ft 287 kts 324°
2026-05-09 11:12 39.07100 15.91634 10635 ft 305 kts 325°
2026-05-09 11:12 39.08950 15.90075 10858 ft 321 kts 324°
2026-05-09 11:12 39.10804 15.88431 11375 ft 325 kts 323°
2026-05-09 11:13 39.12691 15.86705 11833 ft 332 kts 322°
2026-05-09 11:13 39.14574 15.84964 12515 ft 330 kts 322°
2026-05-09 11:13 39.16451 15.83225 13137 ft 331 kts 322°
2026-05-09 11:13 39.18328 15.81489 13618 ft 335 kts 322°
2026-05-09 11:14 39.20240 15.79721 14195 ft 337 kts 322°
2026-05-09 11:14 39.22169 15.77941 14770 ft 339 kts 322°
2026-05-09 11:14 39.24090 15.76167 15361 ft 339 kts 322°
2026-05-09 11:14 39.26008 15.74396 15904 ft 340 kts 322°
2026-05-09 11:15 39.27974 15.72576 16340 ft 345 kts 322°
2026-05-09 11:15 39.29945 15.70750 16865 ft 346 kts 322°
2026-05-09 11:15 39.31923 15.68918 17363 ft 348 kts 322°
2026-05-09 11:15 39.33933 15.67053 17792 ft 352 kts 322°
2026-05-09 11:16 39.35928 15.65203 18276 ft 353 kts 321°
2026-05-09 11:16 39.37915 15.63359 18806 ft 353 kts 321°
2026-05-09 11:16 39.39958 15.61461 19243 ft 356 kts 321°
2026-05-09 11:16 39.41970 15.59591 19681 ft 358 kts 321°
2026-05-09 11:17 39.44006 15.57696 20000 ft 363 kts 321°
2026-05-09 11:17 39.46059 15.55785 20514 ft 361 kts 321°
2026-05-09 11:17 39.48114 15.53872 20917 ft 363 kts 321°
2026-05-09 11:17 39.50181 15.51945 21333 ft 365 kts 321°
2026-05-09 11:18 39.52269 15.49996 21678 ft 367 kts 321°
2026-05-09 11:18 39.54351 15.48053 22198 ft 365 kts 321°
2026-05-09 11:18 39.56438 15.46103 22517 ft 368 kts 320°
2026-05-09 11:18 39.58518 15.44157 22903 ft 369 kts 320°
2026-05-09 11:19 39.60621 15.42187 23251 ft 371 kts 320°
2026-05-09 11:19 39.62724 15.40216 23552 ft 374 kts 320°
2026-05-09 11:19 39.64841 15.38230 23890 ft 376 kts 320°
2026-05-09 11:19 39.66967 15.36237 24158 ft 379 kts 321°
2026-05-09 11:20 39.69168 15.34299 24501 ft 382 kts 323°
2026-05-09 11:20 39.71555 15.32669 24831 ft 390 kts 332°
2026-05-09 11:20 39.74202 15.31599 25233 ft 397 kts 341°
2026-05-09 11:20 39.76939 15.30986 25496 ft 404 kts 346°
2026-05-09 11:21 39.79765 15.30564 25791 ft 408 kts 347°
2026-05-09 11:21 39.82614 15.30201 26065 ft 410 kts 347°
2026-05-09 11:21 39.85448 15.29838 26414 ft 411 kts 347°
2026-05-09 11:21 39.88295 15.29451 26667 ft 413 kts 347°
2026-05-09 11:22 39.91164 15.29041 27009 ft 413 kts 346°
2026-05-09 11:22 39.94044 15.28615 27267 ft 415 kts 346°
2026-05-09 11:22 39.96933 15.28180 27643 ft 414 kts 346°
2026-05-09 11:22 39.99795 15.27743 27836 ft 418 kts 346°
2026-05-09 11:23 40.02695 15.27295 28052 ft 421 kts 346°
2026-05-09 11:23 40.05627 15.26839 28266 ft 423 kts 346°
2026-05-09 11:23 40.08529 15.26392 28702 ft 420 kts 347°
2026-05-09 11:23 40.11435 15.25942 28912 ft 423 kts 346°
2026-05-09 11:24 40.14401 15.25479 29093 ft 427 kts 346°
2026-05-09 11:24 40.17340 15.25021 29408 ft 426 kts 346°
2026-05-09 11:24 40.20299 15.24563 29819 ft 424 kts 346°
2026-05-09 11:24 40.23193 15.24116 30259 ft 421 kts 346°
2026-05-09 11:25 40.26073 15.23673 30705 ft 417 kts 346°
2026-05-09 11:25 40.28963 15.23230 31025 ft 416 kts 346°
2026-05-09 11:25 40.31872 15.22776 31229 ft 418 kts 345°
2026-05-09 11:25 40.34784 15.22314 31428 ft 420 kts 345°
2026-05-09 11:26 40.37678 15.21871 31769 ft 419 kts 346°
2026-05-09 11:26 40.40617 15.21559 32023 ft 423 kts 349°
2026-05-09 11:26 40.43568 15.21578 32312 ft 429 kts 355°
2026-05-09 11:26 40.46559 15.21962 32585 ft 434 kts 359°
2026-05-09 11:27 40.49533 15.22573 32789 ft 437 kts
2026-05-09 11:27 40.52538 15.23293 33026 ft 439 kts
2026-05-09 11:27 40.55541 15.24043 33284 ft 439 kts
2026-05-09 11:27 40.58513 15.24783 33595 ft 437 kts
2026-05-09 11:28 40.61500 15.25510 33794 ft 438 kts
2026-05-09 11:28 40.64494 15.26225 34079 ft 437 kts
2026-05-09 11:28 40.67484 15.26927 34098 ft 438 kts
2026-05-09 11:29 40.73434 15.28316 34094 ft 431 kts
2026-05-09 11:29 40.79299 15.29678 34096 ft 427 kts
2026-05-09 11:30 40.85199 15.31020 34094 ft 431 kts
2026-05-09 11:30 40.91117 15.32368 34094 ft 433 kts
2026-05-09 11:31 40.97027 15.33725 34100 ft 430 kts
2026-05-09 11:31 41.02889 15.35082 34101 ft 429 kts
2026-05-09 11:32 41.08769 15.36447 34096 ft 428 kts
2026-05-09 11:32 41.14623 15.37806 34091 ft 426 kts
2026-05-09 11:33 41.20469 15.39166 34090 ft 425 kts
2026-05-09 11:33 41.29224 15.41197 34087 ft 427 kts
2026-05-09 11:34 41.35070 15.42560 34086 ft 427 kts
2026-05-09 11:34 41.40889 15.43922 34082 ft 425 kts
2026-05-09 11:35 41.46709 15.45286 34078 ft 423 kts
2026-05-09 11:35 41.52478 15.46641 34081 ft 422 kts
2026-05-09 11:36 41.58267 15.47995 34077 ft 424 kts
2026-05-09 11:36 41.64085 15.49363 34070 ft 424 kts
2026-05-09 11:37 41.69891 15.50732 34073 ft 424 kts 360°
2026-05-09 11:37 41.75683 15.52102 34073 ft 423 kts 360°
2026-05-09 11:38 41.81463 15.53470 34070 ft 422 kts 359°
2026-05-09 11:38 41.87222 15.54835 34070 ft 420 kts 359°
2026-05-09 11:39 41.92979 15.56203 34069 ft 420 kts 359°
2026-05-09 11:40 42.01632 15.58255 34071 ft 422 kts 359°
2026-05-09 11:40 42.07405 15.59634 34067 ft 419 kts 359°
2026-05-09 11:41 42.13144 15.61011 34071 ft 418 kts 359°
2026-05-09 11:41 42.18890 15.62385 34069 ft 419 kts 359°
2026-05-09 11:42 42.24653 15.63758 34065 ft 421 kts 359°
2026-05-09 11:42 42.30357 15.65137 34065 ft 415 kts 360°
2026-05-09 11:43 42.36083 15.66520 34071 ft 417 kts 360°
2026-05-09 11:43 42.41825 15.67891 34063 ft 421 kts 359°
2026-05-09 11:44 42.47560 15.69279 34062 ft 419 kts 360°
2026-05-09 11:44 42.53290 15.70673 34057 ft 416 kts 360°
2026-05-09 11:45 42.58979 15.72055 34062 ft 415 kts 359°
2026-05-09 11:45 42.64667 15.73437 34064 ft 415 kts 359°
2026-05-09 11:46 42.70349 15.74859 34070 ft 419 kts
2026-05-09 11:46 42.73208 15.75841 34368 ft 423 kts
2026-05-09 11:46 42.75994 15.77013 34643 ft 425 kts
2026-05-09 11:46 42.78836 15.78317 34791 ft 428 kts
2026-05-09 11:47 42.81658 15.79645 35026 ft 427 kts
2026-05-09 11:47 42.87319 15.82273 35055 ft 434 kts
2026-05-09 11:48 42.93032 15.84880 35057 ft 430 kts
2026-05-09 11:48 42.98663 15.87433 35050 ft 426 kts
2026-05-09 11:49 43.04333 15.89984 35047 ft 428 kts
2026-05-09 11:49 43.07169 15.91252 34896 ft 431 kts
2026-05-09 11:49 43.10006 15.92527 35024 ft 429 kts
2026-05-09 11:50 43.15688 15.95086 35041 ft 432 kts
2026-05-09 11:50 43.21321 15.97640 35043 ft 426 kts
2026-05-09 11:51 43.26942 16.00184 35038 ft 428 kts
2026-05-09 11:51 43.32575 16.02737 35038 ft 425 kts
2026-05-09 11:52 43.38164 16.05279 35036 ft 425 kts
2026-05-09 11:52 43.43800 16.07831 35037 ft 430 kts
2026-05-09 11:53 43.49484 16.10418 35040 ft 428 kts
2026-05-09 11:53 43.55094 16.12995 35050 ft 425 kts
2026-05-09 11:54 43.60669 16.15549 35045 ft 426 kts
2026-05-09 11:54 43.66328 16.18136 35047 ft 429 kts
2026-05-09 11:55 43.71957 16.20727 35055 ft 426 kts
2026-05-09 11:56 43.88749 16.28483 35066 ft 423 kts
2026-05-09 11:57 43.94302 16.31054 35075 ft 426 kts
2026-05-09 11:57 43.99940 16.33659 35079 ft 427 kts
2026-05-09 11:58 44.05526 16.36263 35088 ft 425 kts
2026-05-09 11:58 44.11126 16.38872 35093 ft 429 kts
2026-05-09 11:59 44.16741 16.41491 35091 ft 426 kts
2026-05-09 11:59 44.22356 16.44117 35097 ft 430 kts
2026-05-09 12:00 44.28036 16.46776 35096 ft 430 kts
2026-05-09 12:00 44.33673 16.49429 35099 ft 430 kts
2026-05-09 12:01 44.39346 16.52100 35095 ft 431 kts
2026-05-09 12:01 44.45005 16.54767 35089 ft 436 kts
2026-05-09 12:02 44.50736 16.57473 35086 ft 433 kts 10°
2026-05-09 12:02 44.56406 16.60161 35086 ft 432 kts 10°
2026-05-09 12:03 44.62130 16.62862 35095 ft 435 kts 11°
2026-05-09 12:03 44.67810 16.65568 35092 ft 437 kts 12°
2026-05-09 12:04 44.73555 16.68345 35085 ft 441 kts 12°
2026-05-09 12:04 44.79330 16.71102 35090 ft 438 kts 12°
2026-05-09 12:05 44.85127 16.73878 35076 ft 440 kts 12°
2026-05-09 12:05 44.90918 16.76647 35072 ft 442 kts 12°
2026-05-09 12:06 44.96726 16.79430 35070 ft 443 kts 13°
2026-05-09 12:06 45.02528 16.82214 35077 ft 442 kts 13°
2026-05-09 12:07 45.08311 16.84999 35073 ft 442 kts 13°
2026-05-09 12:07 45.14077 16.87795 35070 ft 441 kts 13°
2026-05-09 12:08 45.19864 16.90602 35063 ft 442 kts 13°
2026-05-09 12:08 45.25712 16.93436 35058 ft 445 kts 13°
2026-05-09 12:09 45.31541 16.96274 35061 ft 444 kts 14°
2026-05-09 12:09 45.37403 16.99137 35062 ft 443 kts 14°
2026-05-09 12:10 45.49030 17.04831 35064 ft 444 kts 14°
2026-05-09 12:11 45.54877 17.07706 35064 ft 445 kts 14°
2026-05-09 12:11 45.60731 17.10590 35065 ft 446 kts 14°
2026-05-09 12:12 45.66585 17.13477 35067 ft 447 kts 14°
2026-05-09 12:12 45.72440 17.16368 35067 ft 446 kts 14°
2026-05-09 12:13 45.78241 17.19242 35069 ft 446 kts 14°
2026-05-09 12:13 45.84084 17.22141 35063 ft 446 kts 14°
2026-05-09 12:14 45.89854 17.25018 35050 ft 445 kts 14°
2026-05-09 12:14 45.95637 17.27902 35039 ft 446 kts 14°
2026-05-09 12:15 46.01494 17.30789 35035 ft 448 kts 13°
2026-05-09 12:15 46.07427 17.33352 35047 ft 446 kts 11°
2026-05-09 12:16 46.13329 17.35737 35040 ft 444 kts 11°
2026-05-09 12:16 46.19222 17.38151 35054 ft 444 kts 11°
2026-05-09 12:17 46.25162 17.40625 35052 ft 445 kts 11°
2026-05-09 12:17 46.31105 17.43129 35057 ft 444 kts 12°
2026-05-09 12:18 46.36995 17.45625 35052 ft 446 kts 12°
2026-05-09 12:18 46.42936 17.48152 35052 ft 446 kts 11°
2026-05-09 12:19 46.48861 17.50680 35053 ft 445 kts 11°
2026-05-09 12:19 46.54785 17.53214 35049 ft 445 kts 11°
2026-05-09 12:20 46.60707 17.55751 35049 ft 445 kts 11°
2026-05-09 12:20 46.66607 17.58285 35052 ft 445 kts 11°
2026-05-09 12:21 46.72510 17.60826 35054 ft 445 kts 11°
2026-05-09 12:21 46.78426 17.63379 35055 ft 444 kts 11°
2026-05-09 12:22 46.84296 17.65916 35061 ft 444 kts 12°
2026-05-09 12:22 46.90200 17.68473 35064 ft 445 kts 12°
2026-05-09 12:23 46.96146 17.71055 35068 ft 445 kts 12°
2026-05-09 12:23 47.02034 17.73620 35067 ft 444 kts 12°
2026-05-09 12:24 47.07935 17.76194 35070 ft 445 kts 12°
2026-05-09 12:24 47.13819 17.78769 35073 ft 445 kts 12°
2026-05-09 12:25 47.19750 17.81368 35076 ft 444 kts 12°
2026-05-09 12:25 47.25669 17.83965 35077 ft 445 kts 12°
2026-05-09 12:26 47.31585 17.86572 35077 ft 445 kts 12°
2026-05-09 12:26 47.37493 17.89184 35070 ft 444 kts 12°
2026-05-09 12:27 47.43379 17.91789 35069 ft 444 kts 11°
2026-05-09 12:27 47.49251 17.94392 35073 ft 444 kts 11°
2026-05-09 12:28 47.55077 17.96979 35073 ft 444 kts 11°
2026-05-09 12:28 47.61002 17.99619 35065 ft 445 kts 11°
2026-05-09 12:29 47.66874 18.02243 35065 ft 444 kts 11°
2026-05-09 12:29 47.72734 18.04880 35058 ft 444 kts 12°
2026-05-09 12:30 47.78519 18.08226 35055 ft 450 kts 20°
2026-05-09 12:30 47.86830 18.14691 35056 ft 453 kts 23°
2026-05-09 12:31 47.95080 18.21353 35051 ft 453 kts 23°
2026-05-09 12:32 48.00609 18.25764 35052 ft 454 kts 22°
2026-05-09 12:32 48.06165 18.30180 35055 ft 452 kts 22°
2026-05-09 12:33 48.11688 18.34566 35058 ft 452 kts 22°
2026-05-09 12:33 48.17202 18.38956 35054 ft 451 kts 22°
2026-05-09 12:34 48.22707 18.43347 35056 ft 450 kts 23°
2026-05-09 12:34 48.28191 18.47728 35068 ft 453 kts 23°
2026-05-09 12:35 48.33721 18.52159 35079 ft 451 kts 23°
2026-05-09 12:35 48.39215 18.56575 35074 ft 451 kts 23°
2026-05-09 12:36 48.44712 18.61003 35070 ft 452 kts 23°
2026-05-09 12:36 48.50213 18.65442 35077 ft 451 kts 24°
2026-05-09 12:37 48.55669 18.69859 35069 ft 451 kts 24°
2026-05-09 12:37 48.61168 18.74320 35072 ft 450 kts 24°
2026-05-09 12:38 48.66642 18.78769 35238 ft 451 kts 24°
2026-05-09 12:38 48.69407 18.81020 35095 ft 454 kts 24°
2026-05-09 12:38 48.72129 18.83241 35045 ft 448 kts 25°
2026-05-09 12:39 48.77518 18.87654 35071 ft 444 kts 25°
2026-05-09 12:39 48.82989 18.91883 35074 ft 448 kts 21°
2026-05-09 12:40 48.88629 18.95747 35078 ft 447 kts 20°
2026-05-09 12:40 48.94268 18.99546 35075 ft 445 kts 21°
2026-05-09 12:41 48.99859 19.03386 35084 ft 445 kts 21°
2026-05-09 12:41 49.05466 19.07293 35086 ft 445 kts 21°
2026-05-09 12:42 49.11033 19.11201 35084 ft 446 kts 21°
2026-05-09 12:42 49.16577 19.15110 35080 ft 446 kts 21°
2026-05-09 12:43 49.22174 19.19070 35084 ft 445 kts 21°
2026-05-09 12:43 49.27810 19.23065 35094 ft 446 kts 21°
2026-05-09 12:44 49.33411 19.27046 35093 ft 446 kts 22°
2026-05-09 12:44 49.39016 19.31041 35104 ft 445 kts 22°
2026-05-09 12:45 49.44601 19.35030 35092 ft 446 kts 22°
2026-05-09 12:45 49.50222 19.39056 35102 ft 445 kts 22°
2026-05-09 12:46 49.55781 19.43047 35094 ft 446 kts 22°
2026-05-09 12:46 49.61135 19.47843 35102 ft 450 kts 38°
2026-05-09 12:47 49.65258 19.55003 35097 ft 455 kts 53°
2026-05-09 12:47 49.68805 19.63109 35105 ft 455 kts 55°
2026-05-09 12:48 49.72274 19.71150 35095 ft 455 kts 55°
2026-05-09 12:48 49.75815 19.79187 35110 ft 454 kts 54°
2026-05-09 12:49 49.79388 19.87209 35117 ft 455 kts 54°
2026-05-09 12:49 49.82950 19.95187 35123 ft 456 kts 54°
2026-05-09 12:50 49.86542 20.03240 35135 ft 455 kts 54°
2026-05-09 12:50 49.90061 20.11151 35132 ft 456 kts 54°
2026-05-09 12:51 49.93634 20.19206 35129 ft 456 kts 54°
2026-05-09 12:51 49.97207 20.27285 35125 ft 458 kts 54°
2026-05-09 12:52 50.00790 20.35412 35135 ft 456 kts 55°
2026-05-09 12:52 50.04369 20.43555 35132 ft 456 kts 54°
2026-05-09 12:53 50.08289 20.51245 35131 ft 455 kts 41°
2026-05-09 12:53 50.10784 20.54230 35130 ft 452 kts 28°
2026-05-09 12:53 50.13562 20.56274 35132 ft 449 kts 16°
2026-05-09 12:54 50.19630 20.58053 35132 ft 444 kts
2026-05-09 12:54 50.25770 20.58669 35117 ft 437 kts 360°
2026-05-09 12:54 50.28781 20.58945 34907 ft 431 kts 360°
2026-05-09 12:55 50.31762 20.59228 34460 ft 431 kts 360°
2026-05-09 12:55 50.34725 20.59518 33977 ft 433 kts
2026-05-09 12:55 50.37725 20.59817 33483 ft 435 kts
2026-05-09 12:55 50.40731 20.60122 32954 ft 438 kts
2026-05-09 12:56 50.43803 20.60436 32332 ft 441 kts
2026-05-09 12:56 50.46837 20.60750 31772 ft 441 kts
2026-05-09 12:56 50.49883 20.61067 31226 ft 441 kts
2026-05-09 12:56 50.52920 20.61385 30666 ft 441 kts
2026-05-09 12:57 50.55962 20.61704 30070 ft 439 kts
2026-05-09 12:57 50.59011 20.62026 29520 ft 437 kts
2026-05-09 12:57 50.62035 20.62344 28984 ft 433 kts
2026-05-09 12:57 50.65016 20.62658 28451 ft 431 kts
2026-05-09 12:58 50.67963 20.62968 27912 ft 426 kts
2026-05-09 12:58 50.70886 20.63279 27391 ft 414 kts
2026-05-09 12:58 50.73730 20.63583 26880 ft 404 kts
2026-05-09 12:58 50.76501 20.63879 26383 ft 394 kts
2026-05-09 12:59 50.79189 20.64164 25901 ft 384 kts
2026-05-09 12:59 50.81807 20.64441 25428 ft 375 kts
2026-05-09 12:59 50.84382 20.64713 24961 ft 366 kts 360°
2026-05-09 12:59 50.86884 20.64977 24508 ft 358 kts 360°
2026-05-09 13:00 50.89334 20.65235 24072 ft 349 kts
2026-05-09 13:00 50.91735 20.65488 23636 ft 342 kts
2026-05-09 13:00 50.94086 20.65736 23215 ft 334 kts
2026-05-09 13:00 50.96355 20.65975 22802 ft 327 kts
2026-05-09 13:01 50.98603 20.66212 22398 ft 324 kts
2026-05-09 13:01 51.00927 20.66450 21971 ft 339 kts
2026-05-09 13:01 51.03305 20.66692 21537 ft 343 kts
2026-05-09 13:01 51.05643 20.66940 21111 ft 336 kts
2026-05-09 13:02 51.07973 20.67194 20703 ft 329 kts
2026-05-09 13:02 51.10237 20.67440 20277 ft 328 kts
2026-05-09 13:02 51.12505 20.67683 19862 ft 326 kts
2026-05-09 13:02 51.14777 20.67925 19443 ft 325 kts
2026-05-09 13:03 51.17029 20.68165 19030 ft 324 kts
2026-05-09 13:03 51.19294 20.68407 18618 ft 323 kts
2026-05-09 13:03 51.21509 20.68644 18215 ft 321 kts
2026-05-09 13:03 51.23752 20.68885 17805 ft 320 kts
2026-05-09 13:04 51.25959 20.69134 17397 ft 319 kts
2026-05-09 13:04 51.28180 20.69572 16972 ft 320 kts
2026-05-09 13:04 51.30331 20.70446 16577 ft 321 kts 15°
2026-05-09 13:04 51.32431 20.71695 16178 ft 321 kts 19°
2026-05-09 13:05 51.34515 20.73106 15763 ft 321 kts 20°
2026-05-09 13:05 51.36568 20.74508 15361 ft 319 kts 20°
2026-05-09 13:05 51.38585 20.75848 14963 ft 318 kts 19°
2026-05-09 13:05 51.40649 20.77187 14563 ft 316 kts 19°
2026-05-09 13:06 51.42666 20.78479 14170 ft 315 kts 18°
2026-05-09 13:06 51.44710 20.79786 13772 ft 313 kts 18°
2026-05-09 13:06 51.46741 20.81086 13387 ft 312 kts 19°
2026-05-09 13:06 51.48741 20.82370 12984 ft 311 kts 19°
2026-05-09 13:07 51.50751 20.83663 12597 ft 309 kts 19°
2026-05-09 13:07 51.52760 20.84956 12201 ft 308 kts 19°
2026-05-09 13:07 51.54740 20.86233 11811 ft 306 kts 19°
2026-05-09 13:07 51.56708 20.87502 11421 ft 305 kts 19°
2026-05-09 13:08 51.58688 20.88781 11029 ft 304 kts 19°
2026-05-09 13:08 51.60644 20.90045 10641 ft 302 kts 19°
2026-05-09 13:08 51.62604 20.91313 10253 ft 300 kts 19°
2026-05-09 13:08 51.64511 20.92548 9949 ft 296 kts 19°
2026-05-09 13:09 51.66395 20.93771 9619 ft 293 kts 19°
2026-05-09 13:09 51.68306 20.95010 9249 ft 291 kts 19°
2026-05-09 13:09 51.70158 20.96212 8890 ft 289 kts 19°
2026-05-09 13:09 51.72012 20.97416 8530 ft 287 kts 19°
2026-05-09 13:10 51.73864 20.98620 8169 ft 285 kts 19°
2026-05-09 13:10 51.75713 20.99823 7735 ft 286 kts 19°
2026-05-09 13:10 51.77561 21.01026 7277 ft 287 kts 19°
2026-05-09 13:10 51.79392 21.02220 6919 ft 284 kts 19°
2026-05-09 13:11 51.81189 21.03395 6562 ft 276 kts 19°
2026-05-09 13:11 51.82955 21.04552 6224 ft 266 kts 19°
2026-05-09 13:11 51.84617 21.05642 5903 ft 257 kts 19°
2026-05-09 13:11 51.86288 21.06734 5574 ft 255 kts 19°
2026-05-09 13:12 51.87928 21.07805 5250 ft 254 kts 19°
2026-05-09 13:12 51.89535 21.08856 5015 ft 249 kts 19°
2026-05-09 13:12 51.91118 21.09896 4806 ft 242 kts 20°
2026-05-09 13:12 51.92668 21.10914 4617 ft 236 kts 20°
2026-05-09 13:13 51.94185 21.11910 4350 ft 235 kts 20°
2026-05-09 13:13 51.95702 21.12896 4098 ft 232 kts 18°
2026-05-09 13:13 51.97254 21.13407 3853 ft 226 kts 355°
2026-05-09 13:13 51.98700 21.12633 3707 ft 217 kts 326°
2026-05-09 13:14 51.99885 21.11152 3523 ft 212 kts 327°
2026-05-09 13:14 52.01176 21.10053 3322 ft 207 kts 336°
2026-05-09 13:16 52.08977 21.03311 1850 ft 144 kts 333°
2026-05-09 13:16 52.09874 21.02531 1649 ft 146 kts 334°
2026-05-09 13:16 52.10772 21.01757 1444 ft 145 kts 333°
2026-05-09 13:16 52.11646 21.00996 1253 ft 144 kts 331°
2026-05-09 13:17 52.12530 21.00217 1055 ft 143 kts 334°
2026-05-09 13:17 52.13428 20.99449 865 ft 147 kts 334°
2026-05-09 13:17 52.14328 20.98669 675 ft 144 kts 334°
2026-05-09 13:17 52.15203 20.97900 468 ft 138 kts 333°
2026-05-09 13:18 52.16022 20.97197 366 ft 125 kts 332°
2026-05-09 13:18 52.16609 20.96677 365 ft 67 kts 331°
2026-05-09 13:18 52.16930 20.96396 365 ft 46 kts 332°
2026-05-09 13:18 52.17102 20.96261 365 ft 13 kts 345°
2026-05-09 13:19 52.17192 20.96245 365 ft 12 kts
2026-05-09 13:19 52.17269 20.96248 365 ft 10 kts
2026-05-09 13:19 52.17341 20.96249 365 ft 10 kts
2026-05-09 13:19 52.17398 20.96296 365 ft 9 kts 53°
2026-05-09 13:20 52.17453 20.96342 365 ft 8 kts 349°
2026-05-09 13:20 52.17510 20.96293 365 ft 9 kts 332°
2026-05-09 13:20 52.17567 20.96244 365 ft 9 kts 332°
2026-05-09 13:20 52.17628 20.96190 365 ft 10 kts 332°
2026-05-09 13:21 52.17701 20.96127 365 ft 12 kts 332°
2026-05-09 13:21 52.17784 20.96088 365 ft 12 kts 31°
2026-05-09 13:21 52.17831 20.96218 365 ft 14 kts 62°
2026-05-09 13:21 52.17871 20.96296 365 ft 5 kts 352°
2026-05-09 13:22 52.17890 20.96280 365 ft 2 kts 332°
2026-05-09 13:22 52.17902 20.96270 365 ft 1 kts 332°
2026-05-09 13:22 52.17915 20.96259 365 ft 2 kts 332°
2026-05-09 13:23 52.17918 20.96256 365 ft 0 kts 332°